Delta Virtual Airport Information Service

San Francisco International Airport

ICAO: KSFO Country: United States
Latitude: 37.619 Longitude: -122.374
Latest Arrival : DAC222 (KOAK-KSFO) Latest Departure : SWA1893 (B) (KSFO-KLAX)


WX CaptureLIVE
Data provided by noaa.gov | Fetched at 22:53:20

METAR : KSFO 240256Z 29012KT 10SM CLR 15/11 A2998 RMK AO2 SLP150 T01500111 51008

TAF : KSFO 240247Z 2403/2506 29014KT P6SM SKC FM240400 28008KT P6SM FEW010 FM241000 VRB05KT P6SM SCT012 FM241500 VRB04KT P6SM BKN012 FM241730 VRB04KT P6SM SCT015 FM242100 27012KT P6SM FEW020 FM250400 27010KT P6SM SCT012


Runway Data for KSFO
Data provided by openaviationdata.com

Runway ID Mag Var Hdg Length Elevation Surface ILS Freq ILS Id ILS Slope
01L 15 12° 7506 ft 13 ft Asphalt -- -- --
01R 15 12° 8654 ft 13 ft Asphalt -- -- --
10L 15 102° 11861 ft 13 ft Asphalt -- -- --
10R 15 102° 10594 ft 13 ft Asphalt -- -- --
19L 15 192° 8654 ft 13 ft Asphalt 108.9 ISIA 2
19R 15 192° 7506 ft 13 ft Asphalt -- -- --
28L 15 282° 10594 ft 13 ft Asphalt 109.55 ISFO 3
28R 15 282° 11861 ft 13 ft Asphalt 111.7 IGWQ 3

San Francisco International Airport, United States
Use only for reference purposes



Not for navigational purposes.